Location: Guilderland
(42.7045°N, 73.9115°W)
Time: 03:58:17
(UTC+00:00)

Daily predictions for brighter satellites

Satellite Brightness Start Highest point End
(mag) Time Altitude Azimuth Time Altitude Azimuth Time Altitude Azimuth
OAO 2 Rocket 4.4 00:03:54 10° SW 00:07:50 30° S 00:07:50 30° S
SeaSat 1 2.3 00:11:24 73° NE 00:11:24 73° NE 00:16:11 10° NNW
Cosmos 2219 3.9 00:07:01 10° NNW 00:12:37 53° WSW 00:17:55 11° S
USA 305 4.3 00:10:48 10° NW 00:13:35 30° N 00:13:35 30° N
YAOGAN 1 4.0 00:11:36 10° SSW 00:15:37 37° W 00:19:38 10° NNW
Cosmos 883 Rocket 4.3 00:13:09 10° S 00:19:19 80° E 00:25:27 10° N
USA 306 4.4 00:17:05 10° NW 00:19:37 29° NNW 00:19:37 29° NNW
S3M 4.4 00:15:54 10° SSW 00:21:55 61° W 00:28:02 10° N
Cosmos 2082 3.6 00:16:58 10° NNW 00:22:40 81° NE 00:22:40 81° NE
CZ-2C R/B 4.4 00:19:36 10° SSW 00:25:05 43° W 00:30:31 10° NNW
SL-4 R/B 4.2 00:22:42 10° NW 00:24:00 17° NNW 00:24:00 17° NNW
Cosmos 968 Rocket 4.1 00:21:24 10° NNW 00:26:28 53° WSW 00:28:17 35° SSW
Cosmos 1346 Rocket 4.2 00:25:11 10° NNW 00:28:23 37° WNW 00:28:23 37° WNW
Cosmos 2369 3.7 00:26:40 10° SSW 00:32:23 81° WNW 00:32:24 81° WNW
NOSS 3-4 (A) 4.4 00:27:01 10° NNW 00:32:51 41° NNE 00:32:51 41° NNE
NOSS 3-4 (C) 4.4 00:27:08 10° NNW 00:32:56 40° NNE 00:32:56 40° NNE
Atlas Centaur 2 3.9 00:27:35 10° SW 00:34:57 33° S 00:35:21 33° S
ARGOS 3.6 00:36:35 48° SSW 00:37:48 59° W 00:43:11 10° NNW
NOSS 3-3 (A) 4.1 00:35:21 10° SW 00:41:05 68° NW 00:41:50 62° N
NOSS 3-3 (C) 4.1 00:35:26 10° SW 00:41:13 68° NW 00:41:58 62° N
USA 215 3.6 00:42:31 51° NNE 00:42:31 51° NNE 00:48:24 10° NW
Cosmos 2227 Rocket 3.6 00:43:47 10° NW 00:48:50 34° WSW 00:51:12 24° SSW
ATLAS 2AS CENTAUR R/B 3.6 00:48:41 10° NNW 00:54:14 39° NNE 00:54:14 39° NNE
Cosmos 2263 Rocket 4.1 00:52:49 10° NNW 00:54:45 21° N 00:54:45 21° N
Cosmos 1697 Rocket 3.9 01:00:36 10° SW 01:05:49 38° WNW 01:06:00 38° NW
Lacrosse 5 4.3 01:02:16 10° NNW 01:03:38 15° NNW 01:03:38 15° NNW
H-2A R/B (2) 4.4 00:32:17 10° WSW 01:08:05 39° SSW 01:09:35 37° S
H-2A R/B 4.2 01:04:38 10° SW 01:08:54 24° W 01:13:14 10° NW
CZ-4C R/B 4.2 01:21:46 10° NNW 01:25:16 28° N 01:25:16 28° N
USA 234 4.4 07:58:57 10° NE 08:03:15 34° N 08:03:15 34° N
ADEOS Rocket 4.1 08:09:16 10° SE 08:14:13 36° ENE 08:19:15 10° N
DELTA 2 R/B (1) 4.4 08:44:03 43° SSE 08:44:03 43° SSE 08:48:08 10° ESE
NOSS 3-2 (C) 3.3 08:44:10 76° NNE 08:44:10 76° NNE 08:50:07 10° NE
ISS -0.8 08:46:04 17° E 08:46:04 17° E 08:47:07 10° ENE
ALOS 4.1 08:50:56 10° NE 08:55:01 29° E 08:59:05 10° SSE
Lacrosse 4 Rocket 2.7 08:57:05 34° NE 08:57:05 34° NE 08:59:29 10° NNE
CENTAUR R/B 2.3 08:57:16 71° WNW 08:57:36 73° NW 09:04:35 10° NNE
CZ-2C R/B 2.2 09:00:12 10° NNE 09:05:13 89° W 09:05:24 84° SSW
Cosmos 1626 4.0 09:03:58 10° SSE 09:07:14 30° E 09:10:31 10° NNE
ADEOS 4.4 09:06:54 10° NNE 09:11:59 50° E 09:17:01 10° S
PAYLOAD A 3.9 09:07:23 10° N 09:12:27 69° WNW 09:12:42 68° W
Cosmos 1833 Rocket 3.0 09:08:56 18° S 09:13:08 66° ESE 09:18:44 10° NNE
In-Cosmos 22 4.0 09:14:21 61° WNW 09:14:21 61° WNW 09:19:31 10° N
Cosmos 2180 Rocket 4.3 09:08:31 10° N 09:14:48 82° W 09:20:59 10° S
Nadezhda 4 Rocket 4.2 09:09:16 10° S 09:15:17 67° E 09:21:23 10° NNE
Cosmos 1302 Rocket 3.9 09:13:14 21° NNW 09:16:55 88° ENE 09:22:11 10° SSE
Cosmos 1269 Rocket 3.9 09:17:07 62° W 09:17:38 66° WNW 09:22:56 10° NNE
Geosat 4.0 09:17:14 10° SSE 09:22:14 80° ENE 09:26:27 15° NNW
Lacrosse 5 rocket 1.2 09:22:55 71° ESE 09:22:55 71° ESE 09:26:30 10° NE
H-2A R/B 4.5 09:20:32 10° S 09:20:50 12° S 09:20:50 12° S
Cosmos 2369 4.3 09:20:39 10° NNW 09:26:14 56° ENE 09:31:46 10° SE
Meteor 1-31 Rocket 4.0 09:24:41 10° NNE 09:28:29 44° E 09:32:14 10° S
Cosmos 2344 4.0 09:27:00 35° WNW 09:29:07 41° NW 09:36:46 10° NNE
USA 238 DEB 4.2 09:29:28 34° WNW 09:30:44 37° NW 09:37:05 10° NNE
USA 238 4.2 09:29:32 34° WNW 09:30:51 37° NW 09:37:11 10° NNE
Cosmos 2082 Rocket 3.0 09:26:46 10° S 09:32:11 52° ESE 09:37:37 10° NNE
Meteor 1-16 Rocket 4.1 09:27:29 10° NNW 09:32:38 52° W 09:37:46 10° S
NOSS 3-2 (A) 4.3 09:34:08 28° NW 09:35:03 30° NW 09:40:47 10° NNE
SJ-6F 4.2 09:31:40 10° N 09:35:46 78° WNW 09:39:21 13° SSW
CZ-4B R/B 1.4 09:35:51 10° SSE 09:39:19 84° ENE 09:42:45 10° N
Cosmos 1536 Rocket 4.5 09:40:50 31° NW 09:40:50 31° NW 09:43:50 10° N
Cosmos 1656 3.7 09:36:09 22° NW 09:39:42 55° WSW 09:45:14 10° S
CZ-4B R/B 4.3 09:37:34 10° NNE 09:41:47 66° ESE 09:45:46 10° S
Cosmos 220 Rocket 4.5 09:38:14 10° NNW 09:42:40 63° ENE 09:47:03 10° SSE
ATLAS 3B R/B 2.7 09:37:22 10° SSW 09:43:55 78° ESE 09:50:34 10° NE
deb Chang Zheng 4 3.5 09:40:07 10° NNE 09:44:23 83° ESE 09:48:38 10° SSW
Meteor 2-5 Rocket 3.8 09:38:50 10° S 09:44:29 85° E 09:50:19 10° N
Cosmos 2279 Rocket 4.5 09:44:32 10° NNW 09:50:00 34° W 09:55:27 10° SSW
COSMOS 2406 3.4 09:48:10 23° SW 09:51:26 49° WNW 09:56:57 10° NNE
Cosmos 1892 Rocket 4.1 09:50:05 10° S 09:54:21 61° E 09:58:40 10° NNE
Cosmos 1400 Rocket 3.5 09:52:00 10° N 09:55:54 54° ENE 09:59:42 10° SSE
Cosmos 1992 Rocket 4.0 09:52:20 10° NNW 09:57:35 82° ENE 10:02:47 10° SSE
Cosmos 1697 Rocket 2.6 09:52:48 10° NNW 09:58:26 71° WSW 10:04:03 10° SSE
ADEOS Rocket 3.4 09:55:05 10° SSW 09:59:50 30° W 10:04:39 10° NW
ARGOS Delta rocket 4.2 09:56:22 10° NNE 10:01:47 86° ESE 10:07:17 10° S
ERS-2 2.8 10:01:09 10° SSW 10:04:26 32° W 10:05:48 24° WNW
BREEZE-M DEB (TANK) 2.7 10:04:38 26° SW 10:04:52 27° SW 10:06:50 10° SSE
Cosmos 44 Rocket 4.0 10:04:23 21° WNW 10:07:10 36° WSW 10:11:52 10° S
SL-19 R/B 3.4 10:05:43 10° N 10:08:31 62° WNW 10:11:21 10° SSW
SKYMED 2 3.6 10:04:13 10° SSE 10:08:33 83° ENE 10:12:55 10° N
SAR-Lupe-4 3.5 10:06:13 10° S 10:09:43 58° WSW 10:13:17 10° NNW
SJ-12 3.9 10:06:33 10° NNE 10:10:41 89° WNW 10:14:46 10° SSW
FENGYUN 3A 3.8 10:06:11 10° N 10:11:28 53° WNW 10:16:43 10° SW
Cosmos 2026 Rocket 4.1 10:06:20 10° S 10:12:42 87° E 10:19:07 10° N
Abrixas rocket 2.8 10:11:30 22° NW 10:12:53 39° NNE 10:15:36 10° E
Cosmos 1461 3.2 10:10:10 12° SW 10:14:21 56° NW 10:19:00 10° NNE
TELKOM 3 3.8 10:12:56 24° WSW 10:14:45 68° NNW 10:18:41 10° ENE
Cosmos 2195 Rocket 4.4 10:11:06 10° SSW 10:17:18 75° W 10:23:30 10° N
Cosmos 1689 Rocket 1.9 10:15:01 10° S 10:17:56 74° WSW 10:20:52 10° NNW
SL-14 R/B 3.7 10:14:16 10° SSW 10:18:01 41° WNW 10:21:51 10° N
Cosmos 2251 Rocket 3.5 10:12:48 10° SSW 10:18:09 70° WNW 10:23:30 10° NNE
Cosmos 1980 Rocket 2.2 10:14:46 10° NNW 10:20:24 88° WSW 10:26:00 10° SSE
ISS -3.2 10:19:03 21° W 10:20:52 42° NNW 10:24:06 10° NE
USA 290 2.4 10:20:10 10° SW 10:23:17 47° WNW 10:26:27 10° N
Cosmos 1315 Rocket 4.3 10:21:24 10° N 10:25:18 40° ENE 10:29:12 10° SSE
Cosmos 614 Rocket 4.3 10:22:05 10° S 10:27:13 73° ESE 10:32:20 10° NNE
Cosmos 1300 3.0 10:23:50 10° NNW 10:27:28 42° W 10:31:04 10° SSW
Cosmos 2360 4.5 10:26:28 10° NW 10:31:55 48° WSW 10:37:19 10° S
PSLV R/B 4.0 10:28:13 10° S 10:32:21 61° WSW 10:36:33 10° NNW
ALOS 3.1 10:28:20 10° N 10:32:22 29° WNW 10:36:23 10° SW
Lacrosse 4 Rocket 3.2 10:33:26 12° WNW 10:34:37 13° NW 10:36:36 10° NNW
Cosmos 1726 Rocket 4.0 10:32:32 10° NNW 10:36:41 40° W 10:40:51 10° SSW
Cosmos 1484 Rocket 4.1 10:35:41 10° NNW 10:38:30 19° WNW 10:41:16 10° WSW
Cosmos 1626 3.7 10:40:09 10° WSW 10:42:33 16° WNW 10:44:58 10° NNW
CZ-2C R/B 4.2 10:40:49 10° NW 10:42:37 12° WNW 10:44:23 10° W
Cosmos 2278 3.9 10:41:41 10° NW 10:47:10 51° WSW 10:52:36 10° S
Aureole 3 4.0 10:43:15 10° NNW 10:47:15 47° W 10:52:15 10° SSW
H-2A R/B 2.7 10:44:00 10° N 10:47:49 85° W 10:51:40 10° SSW
Cosmos 2228 4.2 10:45:11 10° NW 10:48:32 22° W 10:51:52 10° SW
CZ-4B R/B 3.4 10:44:53 10° N 10:48:37 38° WNW 10:52:30 10° SW
CENTAUR R/B 4.0 10:44:47 10° WNW 10:49:42 22° NNW 10:55:14 10° NNE
Cosmos 2098 Rocket 3.9 10:43:48 10° S 10:50:12 83° E 10:55:20 10° N
Cosmos 2322 Rocket 3.5 10:45:46 10° NNW 10:51:08 41° ENE 10:56:25 10° SE
CREW DRAGON DEMO-1 DEB 4.3 10:51:01 10° NW 10:53:43 29° NNE 10:56:24 10° E
CZ-3 R/B 3.5 10:49:23 10° WSW 11:04:20 32° SSW 11:09:48 10° SE
